sat.trackr.live / text

‹ back to catalog

STARLINK-32752

NORAD 62567 · 2025-006P

PAYLOAD ACTIVE UNKNOWN

§ Identity

Operator
Country
US
Launch date
2025-01-10
Launch site
AFETR
Launch vehicle
Mass (kg)
RCS (m²)

Purposes: comms

External: N2YO · Heavens-Above · Gunter

§ Orbital elements

Epoch: 2026-05-25T04:54:52.191936Z

Period
94.27 min
Inclination
43.0006°
Eccentricity
0.0002520
Mean motion
15.27590306 rev/d
Perigee alt
481.3 km
Apogee alt
484.7 km
Semi-major
6,861.2 km
B*
5.3720e-4
RAAN
220.5528°
Arg perigee
283.0547°
Mean anomaly
77.0023°
Rev number
7,656

§ Raw data

STARLINK-327521 62567U 25006P   26145.20477074  .00014555  00000+0  53720-3 0  99972 62567  43.0006 220.5528 0002520 283.0547  77.0023 15.27590306 76564

JSON: /api/v1/satellites/62567 · /tle

For live sub-satellite position, see the globe view (requires WebGL).

§ Visibility from observer

Set your observer location to see the next 7 days of passes ≥ 10°. The values pass through the URL so the page stays shareable.

No JS? Fill the form by hand. The geolocation button needs JavaScript.